Погода в Ашкове

Россия / Смоленская область     55°35′53″N   34°58′58″E
темп.,
°C
ветер,
м/с
пор.,
м/с
влажн.,
%
обл.,
%
осадки,
мм/ч
давл.,
гПа
погр.,
м
13 августа, сб
сб1300:00+16в227198 0.0 102417
03:00+14в1174100 0.0 102411
06:00+14св2275100 0.0 102411
09:00+20всв2257100 0.0 1023252
12:00+25в2242100 0.0 10221185
15:00+26в2237100 0.0 10211532
18:00+25всв224991 0.0 1020112
21:00+19в3365100 0.0 102137
14 августа, вс
вс1400:00+17в2367100 0.0 102126
03:00+16в2273100 0.0 102023
06:00+16в2371100 0.0 102147
09:00+22в345376 0.0 1020337
12:00+26вюв234060 0.0 10201123
15:00+28в223621 0.0 10191746
18:00+27в344444 0.0 1018360
21:00+20в345689 0.0 101957
15 августа, пн
пн1500:00+17вюв23645 0.0 101924
03:00+16юв22815 0.0 101913
06:00+16вюв34792 0.0 102064
09:00+23вюв46510 0.0 1020375
12:00+27вюв56400 0.0 10191635
15:00+29вюв55345 0.0 10192212
18:00+27юв46415 0.0 10181007
21:00+21в47635 0.0 101993
16 августа, вт
вт1600:00+19вюв412665 0.0 1020217
03:00+18вюв412665 0.0 1020220
06:00+16вюв41070100 0.0 1020166
09:00+23юв6114684 0.0 1020458
12:00+27юв7835100 0.0 10201221
15:00+28юв663499 0.0 10201647
18:00+26вюв464268 0.0 1020928
21:00+20в3561100 0.0 102164
17 августа, ср
ср1700:00+20в4862100 0.0 1020152
03:00+17в4116894 0.0 1020199
06:00+18в51361100 0.0 1019245
09:00+22вюв61150100 0.0 1019416
12:00+27вюв683898 0.0 1019859
15:00+28юв783394 0.0 10191459
18:00+24вюв494892 0.0 1019563
21:00+21в385590 0.0 1019178